Weather in Topar

Kazakhstan     49°31′16″N   72°49′37″E
temp.,
°C
wind,
m/s
gust,
m/s
humid.,
%
clouds,
%
prec.,
mm/h
press.,
hPa
HPBL,
m
26 october, tue
tue2600:00+8s3444100 0.0 101654
03:00+7s4948100 0.0 1014164
06:00+5s4753100 0.0 1014102
09:00+6s41250100 0.0 1012282
12:00+10sw71038100 0.0 1011605
15:00+12w783498 0.0 10121119
18:00+8nnw71064100 0.0 1016474
21:00+5n5768100 0.0 1020702
27 october, wed
wed2700:00+4ne6763100 0.0 1023734
03:00+2ene5767100 0.0 1025612
06:00+1ne6766100 0.1 1026531
09:00+1ne6765100 0.0 1027490
12:00+3ne555699 0.0 1027710
15:00+5ne44517 0.0 1025918
18:00+3nne455551 0.0 1027135
21:00+1ne365350 0.0 1028125
28 october, thu
thu2800:00−1ne33605 0.0 102844
03:00−2ne22735 0.0 102821
06:00−3ne22865 0.0 102810
09:00−1ne12805 0.0 102872
12:00+3n11604 0.0 1027430
15:00+6wnw11420 0.0 1026648
18:00+3nw12454 0.0 102510
21:00+2sw22460 0.0 102610
29 october, fri
fri2900:00+1sw33500 0.0 102617
03:000sw33580 0.0 102626
06:00−1ssw33580 0.0 102722
09:000ssw36540 0.0 1028141
12:00+5sw67290 0.0 1026666
15:00+7wsw782294 0.0 1026988
18:00+4sw4827100 0.0 1027149
21:00+2sw41033100 0.0 1029203
30 october, sat
sat3000:00+2sw41037100 0.0 1029234
03:00+1sw4943100 0.0 1030187
06:00+1sw3646100 0.0 1031115
09:00+1sw3545100 0.0 1032144
12:00+4wsw3438100 0.0 1032445
15:00+6wsw3445100 0.0 1031864
18:00+4wsw2250100 0.0 103123
21:00+3sw344694 0.0 102970